When you browse on this site, cookies collect data to enhance your experience and personalize the content and advertising you see.
Visit our Privacy Policy to learn more. By continuing to use the site, you agree to this use of cookies and data.
  • In Netherlands
  • List of Countries
  • For 7 days
  • Water Temperature
  • Weather Map
  • Weather Widgets
  • user-avatar
    Login

    Hourly Weather Kiustendil

    Today, 20 November, Wednesday

    Time Temperature Precipitation Wind Pressure Humidity
    00:00 +4°C° 0 mm 1 mps 625 mmHg 86%
    01:00 +4°C° 0 mm 1 mps 625 mmHg 86%
    02:00 +3°C° 0 mm 2 mps 625 mmHg 87%
    03:00 +3°C° 0 mm 2 mps 624 mmHg 87%
    04:00 +3°C° 0 mm 2 mps 624 mmHg 88%
    05:00 +3°C° 0 mm 2 mps 623 mmHg 87%
    06:00 +3°C° 0 mm 2 mps 623 mmHg 87%
    07:00 +3°C° 0 mm 2 mps 623 mmHg 86%
    08:00 +3°C° 0.5 mm 2 mps 623 mmHg 84%
    09:00 +4°C° 0.5 mm 2 mps 623 mmHg 82%
    10:00 +6°C° 0.5 mm 1 mps 624 mmHg 80%
    11:00 +5°C° 3.6 mm 1 mps 623 mmHg 84%
    12:00 +4°C° 3.6 mm 2 mps 623 mmHg 88%
    13:00 +3°C° 3.6 mm 2 mps 622 mmHg 93%
    14:00 +3°C° 2.1 mm 2 mps 622 mmHg 92%
    15:00 +4°C° 2.1 mm 1 mps 622 mmHg 92%
    16:00 +3°C° 2.1 mm 1 mps 622 mmHg 92%
    17:00 +3°C° 0 mm 1 mps 622 mmHg 92%
    18:00 +3°C° 0 mm 1 mps 623 mmHg 91%
    19:00 +3°C° 0 mm 1 mps 623 mmHg 90%
    20:00 +3°C° 0 mm 1 mps 623 mmHg 91%
    21:00 +3°C° 0 mm 1 mps 623 mmHg 91%
    22:00 +3°C° 0 mm 1 mps 623 mmHg 91%
    23:00 +3°C° 0 mm 1 mps 623 mmHg 91%

    Tomorrow, 21 November, Thursday

    Time Temperature Precipitation Wind Pressure Humidity
    00:00 +2°C° 0 mm 1 mps 623 mmHg 91%
    01:00 +2°C° 0 mm 1 mps 623 mmHg 91%
    02:00 +2°C° 0 mm 1 mps 623 mmHg 92%
    03:00 +2°C° 0 mm 1 mps 623 mmHg 92%
    04:00 +2°C° 0 mm 1 mps 622 mmHg 92%
    05:00 +2°C° 0 mm 1 mps 622 mmHg 92%
    06:00 +2°C° 0 mm 1 mps 622 mmHg 92%
    07:00 +2°C° 0 mm 1 mps 622 mmHg 92%
    08:00 +3°C° 0 mm 1 mps 623 mmHg 87%
    09:00 +5°C° 0 mm 1 mps 623 mmHg 81%
    10:00 +6°C° 0 mm 1 mps 624 mmHg 76%
    11:00 +7°C° 0.1 mm 1 mps 624 mmHg 74%
    12:00 +7°C° 0.1 mm 1 mps 624 mmHg 72%
    13:00 +8°C° 0.1 mm 1 mps 624 mmHg 70%
    14:00 +7°C° 0.1 mm 1 mps 623 mmHg 75%
    15:00 +6°C° 0.1 mm 1 mps 623 mmHg 80%
    16:00 +4°C° 0.1 mm 0 mps 622 mmHg 85%
    17:00 +4°C° 0 mm 1 mps 622 mmHg 86%
    18:00 +4°C° 0 mm 1 mps 622 mmHg 86%
    19:00 +4°C° 0 mm 1 mps 622 mmHg 87%
    20:00 +4°C° 0 mm 1 mps 622 mmHg 88%
    21:00 +4°C° 0 mm 1 mps 622 mmHg 89%
    22:00 +3°C° 0 mm 1 mps 622 mmHg 90%
    23:00 +4°C° 0.3 mm 1 mps 622 mmHg 91%

    Day after tomorrow, 22 November, Friday

    Time Temperature Precipitation Wind Pressure Humidity
    00:00 +4°C° 0.3 mm 1 mps 622 mmHg 92%
    01:00 +4°C° 0.3 mm 1 mps 622 mmHg 93%
    02:00 +4°C° 1.6 mm 1 mps 622 mmHg 94%
    03:00 +4°C° 1.6 mm 1 mps 622 mmHg 95%
    04:00 +4°C° 1.6 mm 1 mps 622 mmHg 97%
    05:00 +4°C° 2.6 mm 1 mps 622 mmHg 97%
    06:00 +4°C° 2.6 mm 1 mps 622 mmHg 96%
    07:00 +4°C° 2.6 mm 1 mps 623 mmHg 96%
    08:00 +4°C° 2.2 mm 1 mps 623 mmHg 96%
    09:00 +4°C° 2.2 mm 1 mps 623 mmHg 95%
    10:00 +4°C° 2.2 mm 1 mps 624 mmHg 94%
    11:00 +4°C° 1.2 mm 1 mps 624 mmHg 94%
    12:00 +4°C° 1.2 mm 1 mps 624 mmHg 93%
    13:00 +4°C° 1.2 mm 1 mps 623 mmHg 92%
    14:00 +4°C° 0.1 mm 1 mps 623 mmHg 92%
    15:00 +4°C° 0.1 mm 1 mps 623 mmHg 93%
    16:00 +3°C° 0.1 mm 1 mps 623 mmHg 93%
    17:00 +3°C° 0.1 mm 1 mps 624 mmHg 93%
    18:00 +3°C° 0.1 mm 1 mps 624 mmHg 93%
    19:00 +3°C° 0.1 mm 1 mps 624 mmHg 92%
    20:00 +3°C° 0 mm 1 mps 624 mmHg 92%
    21:00 +3°C° 0 mm 1 mps 624 mmHg 93%
    22:00 +3°C° 0 mm 1 mps 624 mmHg 93%
    23:00 +2°C° 0 mm 1 mps 624 mmHg 93%

    23 November, Saturday

    Time Temperature Precipitation Wind Pressure Humidity
    00:00 +2°C° 0 mm 1 mps 624 mmHg 93%
    01:00 +2°C° 0 mm 1 mps 624 mmHg 93%
    02:00 +2°C° 0 mm 1 mps 624 mmHg 93%
    03:00 +2°C° 0 mm 1 mps 624 mmHg 93%
    04:00 +2°C° 0 mm 1 mps 624 mmHg 93%
    05:00 +2°C° 0 mm 1 mps 624 mmHg 92%
    06:00 +2°C° 0 mm 1 mps 624 mmHg 92%
    07:00 +2°C° 0 mm 1 mps 624 mmHg 92%
    08:00 +3°C° 0 mm 1 mps 625 mmHg 90%
    09:00 +3°C° 0 mm 1 mps 625 mmHg 89%
    10:00 +3°C° 0 mm 1 mps 625 mmHg 87%
    11:00 +4°C° 0 mm 1 mps 625 mmHg 85%
    12:00 +4°C° 0 mm 1 mps 625 mmHg 83%
    13:00 +5°C° 0 mm 1 mps 625 mmHg 81%
    14:00 +4°C° 0.1 mm 1 mps 624 mmHg 84%
    15:00 +4°C° 0.1 mm 1 mps 624 mmHg 87%
    16:00 +3°C° 0.1 mm 1 mps 624 mmHg 89%
    17:00 +3°C° 0 mm 1 mps 624 mmHg 91%
    18:00 +3°C° 0 mm 1 mps 624 mmHg 92%
    19:00 +2°C° 0 mm 1 mps 624 mmHg 93%
    20:00 +2°C° 0 mm 1 mps 624 mmHg 93%
    21:00 +2°C° 0 mm 1 mps 624 mmHg 93%
    22:00 +1°C° 0 mm 1 mps 624 mmHg 94%
    23:00 +1°C° 0 mm 1 mps 624 mmHg 93%

    24 November, Sunday

    Time Temperature Precipitation Wind Pressure Humidity
    00:00 +1°C° 0 mm 1 mps 624 mmHg 93%
    01:00 +1°C° 0 mm 1 mps 624 mmHg 93%
    02:00 +1°C° 0 mm 1 mps 624 mmHg 93%
    03:00 +1°C° 0 mm 1 mps 623 mmHg 93%
    04:00 +1°C° 0 mm 1 mps 623 mmHg 93%
    05:00 +1°C° 0 mm 1 mps 623 mmHg 93%
    06:00 +1°C° 0 mm 1 mps 623 mmHg 93%
    07:00 +1°C° 0 mm 1 mps 623 mmHg 93%
    08:00 +2°C° 0 mm 1 mps 624 mmHg 88%
    09:00 +3°C° 0 mm 1 mps 624 mmHg 83%
    10:00 +5°C° 0 mm 1 mps 625 mmHg 77%
    11:00 +5°C° 0 mm 1 mps 625 mmHg 75%
    12:00 +6°C° 0 mm 1 mps 625 mmHg 73%
    13:00 +6°C° 0 mm 1 mps 624 mmHg 71%
    14:00 +6°C° 0 mm 1 mps 624 mmHg 75%
    15:00 +5°C° 0 mm 1 mps 624 mmHg 79%
    16:00 +4°C° 0 mm 1 mps 623 mmHg 83%
    17:00 +3°C° 0 mm 1 mps 623 mmHg 85%
    18:00 +3°C° 0 mm 1 mps 623 mmHg 88%
    19:00 +2°C° 0 mm 1 mps 623 mmHg 90%
    20:00 +2°C° 0 mm 1 mps 623 mmHg 89%
    21:00 +2°C° 0 mm 1 mps 623 mmHg 89%
    22:00 +2°C° 0 mm 1 mps 623 mmHg 89%
    23:00 +2°C° 0 mm 1 mps 622 mmHg 89%

    25 November, Monday

    Time Temperature Precipitation Wind Pressure Humidity
    00:00 +2°C° 0 mm 1 mps 622 mmHg 90%
    01:00 +1°C° 0 mm 1 mps 622 mmHg 91%
    02:00 +1°C° 0 mm 1 mps 621 mmHg 91%
    03:00 +1°C° 0 mm 1 mps 621 mmHg 91%
    04:00 +1°C° 0 mm 1 mps 621 mmHg 91%
    05:00 +1°C° 0 mm 1 mps 621 mmHg 91%
    06:00 +1°C° 0 mm 1 mps 621 mmHg 90%
    07:00 +1°C° 0 mm 1 mps 621 mmHg 90%
    08:00 +1°C° 0 mm 2 mps 621 mmHg 87%
    09:00 +2°C° 0 mm 2 mps 622 mmHg 83%
    10:00 +3°C° 0 mm 2 mps 622 mmHg 80%
    11:00 +3°C° 0.1 mm 2 mps 622 mmHg 80%
    12:00 +3°C° 0.1 mm 2 mps 621 mmHg 80%
    13:00 +3°C° 0.1 mm 2 mps 621 mmHg 80%
    14:00 +3°C° 0.1 mm 2 mps 621 mmHg 83%
    15:00 +3°C° 0.1 mm 1 mps 621 mmHg 86%
    16:00 +3°C° 0.1 mm 1 mps 620 mmHg 88%
    17:00 +3°C° 0.1 mm 1 mps 620 mmHg 88%
    18:00 +2°C° 0.1 mm 2 mps 620 mmHg 89%
    19:00 +2°C° 0.1 mm 2 mps 620 mmHg 89%
    20:00 +1°C° 0 mm 2 mps 620 mmHg 89%
    21:00 +1°C° 0 mm 2 mps 620 mmHg 90%
    22:00 +1°C° 0 mm 2 mps 620 mmHg 91%
    23:00 +1°C° 0 mm 2 mps 620 mmHg 91%
    Show more